Torna al catalogo

STARLINK-5767

AttivoComunicazioniVLEO
NORAD 55586·PAYLOAD·🇺🇸 United States

Lanciato Feb 12, 2023 da Cape Canaveral Space Force Station

Loading…

Prossimi Passaggi (prossime 24 ore)

TLE

AggiornatoSource: CelesTrak SupGP

Epoca: Sep 15, 2026, 02:03 UTC

1 55586C 23020T   26258.08590278 -.00034908  00000+0 -12645-2 0  2581
2 55586  43.0029  15.8096 0002288 268.1226 175.8282 15.27589634    19

Traccia STARLINK-5767 in tempo reale con AllMySat

Download on the App Store